Zurück zum Katalog

CUAVA-2

AktivWissenschaftSSO
NORAD 60527·PAYLOAD·🇦🇺 Australia

Gestartet Aug 16, 2024 von Vandenberg Space Force Base

Loading…

Nächste Überflüge (nächste 24 Stunden)

TLE

AktuellSource: Space-Track

Epoche: Sep 14, 2026, 11:11 UTC

1 60527U 24149BM  26257.46662147  .00009784  00000-0  26386-3 0  9994
2 60527  97.3675 339.2314 0005605 344.5167  15.5906 15.37993114115882

Verfolge CUAVA-2 in Echtzeit mit AllMySat

Download on the App Store